This demonstration page uses our WeatherBlox Daily Observations layout. Learn more.

Left ArrowRight Arrow

Hourly Observations for October 16, 2022

Temp ( °F °C ) Dew Point ( °F °C ) Humidity (%) Winds ( mph kmh ) Pressure ( in mb ) Visibility ( mi km ) Precip ( " mm )
12:56 am 00:56 Mostly Cloudy 51 10.6 42 5.6 71 71 NW 8 13 30.15 1021 10 16 0.00 0.00
1:56 am 01:56 Clear 47 8.3 41 5 80 80 NW 7 11 30.16 1021 10 16 0.00 0.00
2:56 am 02:56 Clear 47 8.3 41 5 80 80 NW 8 13 30.16 1021 10 16 0.00 0.00
3:56 am 03:56 Clear 47 8.3 41 5 80 80 NW 10 17 30.16 1022 10 16 0.00 0.00
4:56 am 04:56 Clear 45 7.2 41 5 86 86 NW 9 15 30.16 1022 10 16 0.00 0.00
5:56 am 05:56 Clear 44 6.7 41 5 89 89 NW 9 15 30.19 1022 10 16 0.00 0.00
6:56 am 06:56 Clear 44 6.7 40 4.4 85 85 NW 8 13 30.20 1023 10 16 0.00 0.00
7:56 am 07:56 Sunny 42 5.6 40 4.4 92 92 NW 9 15 30.22 1023 10 16 0.00 0.00
8:56 am 08:56 Sunny 47 8.3 43 6.1 86 86 NW 10 17 30.24 1024 10 16 0.00 0.00
9:56 am 09:56 Sunny 52 11.1 44 6.7 74 74 NNW 17 28 30.26 1025 10 16 0.00 0.00
10:56 am 10:56 Mostly Cloudy 53 11.7 44 6.7 71 71 N 15 24 30.27 1025 10 16 0.00 0.00
11:12 am 11:12 Cloudy 54 12 43 6 67 67 N 18 30 30.26 1025 10 16 0.00 0.00
11:35 am 11:35 Mostly Cloudy 55 13 39 4 54 54 N 20 31 30.25 1024 10 16 0.00 0.00
11:56 am 11:56 Mostly Cloudy 56 13.3 38 3.3 51 51 N 20 31 30.27 1025 10 16 0.00 0.00
12:56 pm 12:56 Mostly Sunny 57 13.9 36 2.2 45 45 N 21 33 30.27 1025 10 16 0.00 0.00
1:56 pm 13:56 Sunny 57 13.9 34 1.1 42 42 NNW 22 35 30.26 1025 10 16 0.00 0.00
2:56 pm 14:56 Sunny 58 14.4 29 -1.7 33 33 NNW 17 28 30.24 1024 10 16 0.00 0.00
3:56 pm 15:56 Sunny 58 14.4 26 -3.3 29 29 NNW 20 31 30.23 1024 10 16 0.00 0.00
4:56 pm 16:56 Sunny 57 13.9 22 -5.6 25 25 NNW 17 28 30.24 1024 10 16 0.00 0.00
5:56 pm 17:56 Sunny 55 12.8 20 -6.7 25 25 NNW 16 26 30.25 1024 10 16 0.00 0.00
6:56 pm 18:56 Clear 50 10 21 -6.1 32 32 N 13 20 30.27 1025 10 16 0.00 0.00
7:56 pm 19:56 Clear 45 7.2 21 -6.1 38 38 N 12 19 30.29 1026 10 16 0.00 0.00
8:56 pm 20:56 Clear 42 5.6 21 -6.1 43 43 N 10 17 30.30 1026 10 16 0.00 0.00
9:56 pm 21:56 Clear 41 5 21 -6.1 44 44 NNW 8 13 30.31 1026 10 16 0.00 0.00
10:56 pm 22:56 Clear 37 2.8 21 -6.1 52 52 NW 7 11 30.33 1027 10 16 0.00 0.00
11:56 pm 23:56 Clear 35 1.7 21 -6.1 56 56 NW 8 13 30.33 1027 10 16 0.00 0.00

Powered by AerisWeather